Date,TemperatureHighF,TemperatureAvgF,TemperatureLowF,DewpointHighF,DewpointAvgF,DewpointLowF,HumidityHigh,HumidityAvg,HumidityLow,PressureMaxIn,PressureMinIn,WindSpeedMaxMPH,WindSpeedAvgMPH,GustSpeedMaxMPH,PrecipitationSumIn
2013-1-1,54.3,41.5,32.2,40.2,36.2,30.7,96,83,56,30.28,30.22,2,0,5,0.00
2013-1-2,60.3,39.6,28.6,39.6,33.0,27.4,96,81,39,30.25,30.13,2,0,2,0.00
2013-1-3,60.1,39.7,29.4,41.5,34.2,28.1,97,84,39,30.27,30.17,1,0,3,0.01
2013-1-4,61.0,42.7,33.3,42.4,36.3,32.0,97,81,41,30.30,30.18,1,0,3,0.00
2013-1-5,56.7,46.0,34.4,48.0,42.6,33.1,96,89,71,30.27,30.07,2,0,4,0.08
2013-1-6,49.9,45.1,37.4,46.5,43.0,36.1,96,93,82,30.20,30.05,3,0,10,0.10
2013-1-7,61.0,45.5,34.7,49.7,41.9,33.7,97,88,64,30.27,30.16,1,0,2,0.00
2013-1-8,64.5,47.8,39.3,51.9,42.9,38.3,97,85,54,30.24,30.13,1,0,3,0.00
2013-1-9,56.6,45.4,39.2,49.8,42.5,37.6,97,90,74,30.15,30.01,5,0,9,0.01
2013-1-10,53.8,44.0,37.2,40.2,36.9,34.2,94,77,53,30.20,30.08,6,1,15,0.00
2013-1-11,54.4,42.0,31.6,40.9,36.0,29.6,95,80,53,30.27,30.14,4,0,10,0.00
2013-1-12,36.7,33.0,31.1,35.1,31.6,29.7,96,95,92,30.26,30.17,0,0,1,0.00
2013-1-13,51.8,41.3,30.6,31.6,27.3,19.0,89,62,29,30.24,30.18,3,0,6,0.00
2013-1-14,52.9,37.4,26.7,28.5,23.6,17.7,86,63,26,30.42,30.23,2,0,6,0.00
2013-1-15,57.6,39.5,27.2,33.7,28.8,24.9,93,70,31,30.49,30.40,1,0,5,0.00
2013-1-16,60.4,40.3,28.4,37.2,31.6,26.6,95,75,35,30.44,30.26,1,0,2,0.00
2013-1-17,65.7,43.2,30.2,41.2,34.4,28.7,96,75,36,30.27,30.15,1,0,2,0.00
2013-1-18,68.5,45.3,33.4,43.3,36.5,31.5,95,75,35,30.24,30.13,1,0,3,0.01
2013-1-19,67.0,46.0,31.5,43.8,36.9,29.6,95,74,37,30.25,30.15,2,0,4,0.00
2013-1-20,68.4,45.2,31.7,41.4,35.2,30.2,96,73,28,30.24,30.13,1,0,2,0.00
2013-1-21,67.5,44.8,30.7,43.0,35.5,28.9,95,75,32,30.18,30.08,1,0,2,0.01
2013-1-22,65.3,46.8,33.1,46.7,38.8,31.7,96,77,38,30.11,30.00,1,0,3,0.00
2013-1-23,55.1,49.4,45.4,50.3,46.2,41.6,95,89,78,30.09,29.96,0,0,2,0.05
2013-1-24,57.7,52.8,49.3,53.1,50.4,47.9,97,92,80,30.19,30.06,0,0,1,0.01
2013-1-25,67.5,56.2,49.4,57.4,52.7,47.5,97,89,68,30.19,30.04,3,0,5,0.02
2013-1-26,60.9,49.7,41.6,50.0,43.6,38.8,97,81,46,30.10,30.01,6,1,10,0.00
2013-1-27,58.0,47.4,38.6,41.7,38.5,29.9,93,74,35,30.18,30.09,4,1,6,0.00
2013-1-28,59.7,47.5,38.5,43.7,40.4,36.1,95,78,51,30.31,30.17,5,1,8,0.00
2013-1-29,59.5,47.3,38.4,45.9,41.0,36.4,95,81,54,30.37,30.27,4,0,7,0.00
2013-1-30,71.2,50.1,37.6,46.1,40.6,36.3,96,75,36,30.35,30.25,2,0,3,0.00
2013-1-31,67.6,48.3,35.3,48.6,41.3,34.0,97,80,45,30.30,30.18,2,0,2,0.00